Theta_e
323 323 322 322 321 321 320 320 320 319 318 319 318 318 318 319 319 319 319 319 319 319 319 319 320 322 312 302 307 323 348 343 325 322 316 317 321 321 313 314 324 324 324 327 329 327 329
326 325 324 322 321 321 320 320 319 319 318 318 318 318 318 318 318 318 318 318 318 318 319 319 321 323 309 295 309 334 326 327 316 312 313 317 324 325 316 313 312 317 324 324 324 324 329
327 326 325 323 321 321 320 319 318 318 318 318 318 318 318 318 318 317 318 317 317 318 318 319 322 322 310 302 313 320 317 315 316 312 320 322 324 321 315 311 314 314 318 321 322 320 328
326 326 326 324 322 320 319 318 317 317 318 317 317 317 317 317 317 317 317 316 317 318 318 320 325 315 299 315 313 312 311 307 313 316 320 323 323 317 313 315 311 306 304 302 313 315 327
325 325 325 325 323 320 319 318 317 317 317 317 317 317 317 316 317 316 316 316 317 319 320 321 311 309 305 323 309 308 309 306 304 311 319 326 316 308 311 305 300 301 298 302 306 317 323
325 324 325 325 324 321 319 318 318 317 317 317 316 316 316 316 316 315 315 315 316 318 319 321 317 304 310 311 309 308 306 307 305 308 310 311 306 302 302 300 294 297 298 300 303 311 322
325 325 324 324 324 321 319 317 317 317 316 316 316 316 315 315 315 314 310 305 299 300 308 306 308 308 311 309 311 307 308 304 303 302 297 307 300 295 301 302 305 303 301 300 305 311 320
325 324 323 323 322 321 319 317 316 316 316 316 316 315 315 315 314 313 308 303 300 303 296 304 307 309 312 311 303 304 307 300 300 295 298 296 297 303 305 306 306 304 300 299 303 311 318
323 324 323 322 322 320 319 317 316 316 315 315 315 315 314 313 313 310 305 307 308 305 294 300 304 303 303 303 302 302 303 301 298 295 294 293 297 309 307 304 302 301 298 297 300 316 321
323 323 322 322 321 320 319 317 316 315 315 315 315 314 313 312 306 305 306 306 306 304 288 295 298 302 302 302 298 306 305 302 298 295 296 294 301 303 305 303 301 293 303 304 303 306 305
322 322 322 322 321 320 319 317 315 315 315 314 314 314 313 311 302 304 309 312 309 301 283 301 299 306 302 298 300 301 306 300 297 297 295 294 297 298 299 301 304 300 304 302 304 304 309
322 322 322 322 320 320 319 317 315 314 314 314 314 313 312 308 304 308 311 311 302 290 286 298 301 299 296 297 300 302 301 301 301 297 296 297 301 299 299 303 304 307 302 300 297 297 295
322 322 322 322 320 320 319 316 314 314 314 313 312 311 309 310 302 307 305 301 290 285 299 294 294 294 293 295 297 299 297 293 291 289 287 294 296 299 303 298 301 302 294 289 288 287 288
321 321 321 321 320 319 318 316 314 313 313 312 310 309 309 310 307 305 303 295 286 296 293 297 296 294 292 294 296 298 295 292 294 291 287 286 287 296 302 298 297 299 295 289 286 285 289
321 321 321 321 319 318 318 316 314 313 312 311 309 305 308 309 311 306 298 289 289 292 297 296 296 292 292 296 297 296 294 292 295 294 288 287 290 300 302 301 302 297 294 298 291 288 288
320 320 320 321 319 318 318 316 314 313 312 310 301 303 307 313 308 302 294 291 291 296 297 296 291 294 290 293 294 293 292 295 296 298 293 290 287 293 301 301 301 299 301 293 290 286 283
320 320 320 320 320 318 318 315 313 313 311 309 303 303 311 311 306 297 289 291 294 298 299 295 292 291 291 292 293 291 291 296 298 298 297 291 287 290 296 293 292 294 293 292 292 290 287
321 320 320 320 319 319 317 314 313 311 309 304 300 300 312 306 295 293 292 297 300 297 299 297 297 294 292 293 292 293 292 294 299 299 293 293 289 286 290 297 299 296 294 293 289 288 289
320 320 320 320 320 319 317 314 312 311 309 302 297 300 312 304 291 291 295 299 298 297 296 295 295 296 295 291 289 294 297 300 300 297 291 292 288 283 287 291 295 294 296 292 292 292 290
320 320 320 320 320 319 317 314 312 311 311 302 299 298 300 301 296 292 292 294 295 301 298 298 295 296 293 291 293 292 295 300 300 299 307 300 288 286 284 288 292 292 296 297 290 289 290
319 319 319 319 320 319 317 314 313 312 311 304 301 300 297 291 294 293 293 295 295 295 298 297 294 293 290 288 290 291 294 295 298 303 296 292 286 288 291 294 295 295 296 298 292 292 292
319 319 319 319 320 318 315 313 313 312 309 303 300 296 298 293 294 294 294 292 295 294 294 293 293 296 293 289 289 289 291 290 289 294 292 292 286 289 287 295 296 295 297 298 300 308 295
319 319 319 319 320 318 315 314 313 311 307 303 306 302 298 295 294 292 292 294 298 296 295 298 296 293 292 293 294 292 292 293 292 289 289 289 287 287 284 292 294 289 295 297 310 311 308
318 318 318 319 319 318 314 314 313 312 308 302 304 303 297 294 294 293 298 299 298 296 293 297 297 293 297 298 297 294 291 291 292 292 291 288 285 286 285 288 282 291 309 312 311 311 313
318 317 318 319 319 316 314 314 313 312 310 302 303 302 298 294 297 295 296 294 295 294 295 297 299 298 296 295 288 285 286 287 290 293 292 289 286 284 283 283 289 299 307 307 303 307 313
317 317 317 318 318 314 313 314 313 312 310 303 304 306 302 296 294 299 295 295 291 289 292 296 298 298 299 292 288 280 281 286 287 291 292 289 288 286 284 283 283 296 310 314 311 301 313
316 316 317 317 315 313 313 313 313 314 311 304 304 307 304 298 297 297 295 293 294 293 291 293 295 297 300 287 283 282 285 292 287 287 286 285 284 283 283 283 289 306 311 314 298 301 314
315 315 316 316 313 312 313 313 312 313 313 305 304 307 305 298 299 299 301 298 297 295 291 294 294 295 293 287 282 286 287 292 290 292 289 285 284 283 284 282 283 309 311 304 310 315 316
315 315 316 313 312 311 313 312 312 313 313 310 302 309 307 302 299 301 300 302 303 300 297 297 295 294 294 287 286 287 285 288 290 286 296 289 290 287 291 294 307 309 308 313 314 310 311
Wind_Speed
18 17 17 17 17 17 17 18 18 19 20 20 21 21 21 21 21 22 21 20 20 20 19 17 16 12 3 3 10 5 9 8 7 6 5 5 5 6 4 3 5 11 8 9 13 9 18
17 17 18 18 18 18 18 19 19 19 20 20 22 22 23 23 22 22 22 21 20 19 17 14 13 7 2 3 6 11 9 6 5 6 5 5 6 3 6 4 5 6 13 7 10 8 2
16 16 15 16 17 18 19 20 21 21 21 21 22 22 22 24 25 23 22 22 21 19 16 11 11 4 0 15 2 7 5 8 6 6 5 7 4 0 6 8 2 6 5 7 12 4 19
17 17 15 14 15 16 18 20 21 21 21 21 21 22 22 23 24 24 23 23 22 19 15 9 7 3 8 7 5 8 8 6 5 7 6 7 5 6 5 3 8 4 1 3 11 6 11
16 17 18 14 15 16 18 19 20 20 20 21 22 23 23 24 25 24 24 26 22 14 7 3 2 2 10 12 2 8 7 7 2 4 7 11 3 2 4 3 5 5 3 4 9 8 12
15 16 16 16 14 15 16 18 19 20 21 22 23 23 24 24 24 24 26 23 7 4 3 6 5 3 5 2 4 5 3 3 4 3 3 1 3 3 5 4 6 5 3 5 6 1 12
14 17 17 17 15 16 15 16 18 19 21 22 23 24 24 25 24 20 14 5 7 4 1 7 5 4 9 7 2 2 3 2 1 4 4 2 4 5 8 5 6 3 5 7 11 11 12
16 15 16 17 16 16 17 18 19 19 19 21 23 25 25 26 25 22 1 2 4 6 9 9 13 11 18 4 4 4 3 3 5 4 2 4 6 10 7 7 8 8 6 11 10 11 7
15 15 15 16 16 16 16 18 19 20 20 21 21 23 25 28 30 1 2 7 7 5 2 9 7 5 6 8 6 7 9 4 3 3 3 7 8 11 8 7 8 11 9 2 9 6 10
15 15 15 15 16 16 16 17 19 21 21 20 21 22 22 29 3 5 5 5 7 6 5 8 3 6 4 6 4 7 10 7 4 8 6 6 12 9 12 9 8 10 7 12 8 3 4
17 16 16 16 17 17 17 17 18 20 20 20 20 20 20 12 5 4 6 10 9 7 4 3 4 3 5 7 1 2 5 4 6 6 7 11 5 6 10 13 7 11 7 10 4 7 6
14 16 16 17 18 20 17 18 19 21 22 22 22 19 17 1 2 10 9 12 5 6 1 4 4 5 4 2 3 2 4 3 3 2 2 9 6 6 10 14 8 10 3 5 4 5 2
15 14 16 16 18 19 18 19 20 23 24 25 25 25 8 4 6 2 6 5 6 4 6 6 2 1 3 4 4 5 4 3 5 3 5 7 7 5 6 4 5 6 7 2 3 2 6
16 15 15 16 16 19 18 19 21 22 25 25 27 28 4 7 6 4 5 6 6 3 4 2 5 3 2 1 6 8 6 3 3 5 2 2 9 2 1 9 10 8 10 8 7 5 5
15 15 15 15 16 17 18 18 19 22 25 27 24 4 3 7 7 4 6 6 3 2 4 7 8 7 8 8 4 6 7 5 2 3 8 2 6 7 1 3 9 6 2 8 6 2 4
16 15 15 14 14 15 17 16 19 22 25 26 5 4 5 5 9 6 6 3 2 1 3 5 6 6 7 7 9 8 8 5 3 6 2 2 3 3 8 6 3 7 6 3 4 2 2
17 15 14 14 13 14 16 16 18 20 24 25 2 4 6 6 5 6 3 6 2 1 4 5 2 3 4 4 5 5 6 2 7 8 9 5 4 9 4 4 3 8 3 6 6 6 5
18 17 15 14 12 12 13 14 14 17 23 7 4 2 4 3 4 1 2 5 4 3 8 8 6 6 3 5 5 4 3 4 8 4 4 2 4 3 7 7 4 5 6 5 7 5 1
19 17 17 16 12 11 11 12 12 12 11 4 3 4 6 6 1 3 6 2 7 5 5 4 6 5 3 5 5 5 4 3 5 5 3 5 4 5 13 10 8 5 5 5 3 5 6
17 16 15 15 13 10 9 9 11 11 9 1 2 4 5 5 0 3 3 5 4 7 7 5 5 7 7 9 8 6 9 7 9 2 4 5 3 6 6 6 5 7 11 6 2 5 5
16 15 14 14 13 9 8 8 10 10 9 2 1 3 3 3 5 3 3 3 5 4 5 8 7 7 3 7 5 6 7 7 7 10 8 5 1 3 6 7 4 6 10 10 3 8 7
15 14 13 12 10 8 7 7 9 11 9 2 1 3 5 4 5 5 3 4 8 3 4 3 5 11 11 5 3 3 5 5 2 9 8 7 3 5 4 5 7 9 12 9 5 11 4
14 13 12 11 9 7 6 7 7 9 5 1 3 3 4 5 5 3 2 3 4 5 4 7 6 6 9 3 3 4 4 5 6 2 4 4 3 5 5 5 4 7 6 3 7 14 7
13 12 11 10 7 7 4 5 6 7 5 1 3 1 3 4 2 4 9 10 8 4 5 4 8 5 3 5 5 5 4 5 6 8 5 4 2 2 4 5 4 3 10 10 12 19 19
13 13 11 8 7 6 4 5 4 3 4 1 2 3 2 3 1 1 9 7 6 2 3 6 2 4 3 8 5 6 7 8 5 7 8 6 3 2 1 2 6 3 10 7 5 8 16
13 12 10 8 7 6 4 4 5 3 2 1 3 3 2 2 4 5 6 6 4 3 2 3 1 3 7 4 4 3 1 2 6 11 8 3 5 4 2 1 4 1 11 12 3 4 16
12 11 9 9 8 6 7 4 4 5 3 2 4 1 3 1 5 4 3 1 2 3 3 3 3 3 5 3 3 2 2 2 3 5 7 2 2 6 3 3 5 13 13 12 5 1 9
11 10 9 11 11 9 8 4 2 2 4 3 5 3 4 1 7 5 6 3 4 4 4 4 6 6 5 5 3 2 1 1 2 4 4 2 2 4 2 1 5 22 6 7 3 4 3
11 11 11 14 12 9 6 4 2 1 3 3 1 3 1 3 6 1 3 2 4 2 7 5 6 3 4 5 1 1 2 3 2 2 6 1 4 4 3 4 4 7 12 12 11 3 5
Wind_Direction
356 351 350 349 346 346 347 347 345 342 341 338 338 335 331 330 327 323 321 318 315 315 318 322 321 328 14 18 252 202 157 145 134 154 210 199 197 187 223 188 168 231 270 222 212 193 179
352 347 347 345 343 344 345 346 343 342 339 335 335 331 327 326 326 323 321 316 312 310 311 320 314 319 90 285 241 156 148 144 153 168 207 212 222 201 271 245 179 251 268 207 210 211 212
339 337 340 343 340 340 341 343 342 340 338 333 330 328 325 323 323 322 320 313 308 304 303 312 291 254 116 235 282 78 198 183 185 183 179 236 250 293 337 319 278 280 284 287 277 108 154
347 342 334 338 342 339 336 337 339 337 334 330 328 326 324 322 321 321 318 310 304 296 291 285 264 224 245 260 241 261 204 277 226 213 225 238 247 258 210 289 345 347 63 190 259 102 159
351 347 344 336 343 336 333 333 334 333 331 330 328 326 326 324 322 322 317 308 302 284 234 229 198 209 271 302 206 239 159 210 292 246 244 253 263 247 339 29 1 357 233 249 305 155 168
351 349 344 341 339 332 330 330 332 331 331 330 328 326 325 324 323 324 321 308 283 324 152 187 259 301 284 255 225 209 210 205 230 253 318 114 36 36 18 85 219 228 217 290 243 42 156
340 342 345 339 332 330 326 326 328 330 330 329 327 326 324 323 323 326 341 359 14 359 169 201 203 248 292 328 321 108 200 236 14 83 177 210 96 204 235 213 241 267 293 281 301 295 186
341 335 342 339 333 329 325 327 327 328 329 329 326 325 324 323 321 322 231 19 202 201 309 241 244 243 255 261 291 303 102 139 135 198 210 19 200 224 224 250 250 265 278 286 286 284 133
342 331 331 338 332 330 324 326 326 327 327 326 323 323 325 323 319 357 197 238 288 88 15 294 225 213 225 147 210 258 138 164 179 228 196 184 228 222 224 252 239 259 232 257 242 346 61
336 329 323 326 331 330 327 324 324 324 322 322 322 323 328 330 358 327 276 285 322 97 54 281 216 261 145 139 269 209 178 151 181 205 225 214 246 206 235 243 187 245 226 236 247 155 168
337 325 322 329 331 332 327 321 324 321 320 319 318 322 325 325 288 315 260 339 327 59 53 195 220 206 145 142 324 318 152 91 193 230 101 250 224 205 235 238 191 241 220 231 169 201 131
317 327 325 325 332 332 325 323 322 322 320 318 317 318 329 122 220 245 326 311 57 48 22 205 158 190 96 259 271 330 139 103 142 234 140 224 253 192 219 248 231 251 279 50 44 107 112
316 322 323 319 324 331 323 324 324 325 323 321 318 314 298 270 228 18 327 33 53 100 333 5 331 190 171 234 277 177 193 181 164 54 328 323 280 261 193 256 308 183 74 319 356 45 202
311 313 315 319 318 328 324 324 327 327 323 322 320 316 199 215 239 8 25 53 71 302 341 348 355 3 104 142 242 208 147 212 283 89 107 200 317 6 296 184 205 208 152 153 182 183 225
304 306 311 318 322 328 323 324 327 328 325 324 320 320 263 255 196 102 63 62 218 19 334 352 351 34 356 349 324 7 158 345 89 134 157 109 271 304 146 296 151 230 127 186 119 105 87
297 299 302 309 317 319 320 322 327 330 327 326 315 331 273 237 126 72 70 237 193 45 357 33 48 46 19 332 12 20 18 325 349 16 114 232 328 280 306 1 1 157 169 86 13 185 211
292 295 295 299 308 316 321 325 330 335 330 325 325 350 257 130 88 58 145 234 122 137 99 89 56 9 9 359 352 24 352 4 0 330 57 3 102 290 16 45 12 335 43 66 113 132 163
291 293 292 291 307 310 316 322 332 341 338 24 337 352 280 79 47 152 201 212 121 49 37 37 66 53 38 13 16 50 46 58 341 338 35 343 125 292 247 273 279 221 234 154 125 270 200
300 300 295 293 299 305 313 321 333 346 21 324 341 273 311 87 88 322 300 2 61 39 43 57 32 29 30 23 17 29 56 48 21 52 74 319 10 8 340 2 357 14 339 291 126 95 207
301 297 295 294 293 297 308 319 328 335 350 63 351 346 325 47 302 135 51 360 109 40 60 66 29 38 28 24 17 41 12 337 340 95 171 80 93 135 178 217 252 306 320 330 167 125 187
301 298 298 294 291 293 296 312 322 331 332 133 206 272 192 317 330 23 53 52 84 71 57 29 29 53 43 32 33 16 3 339 349 10 335 84 232 198 235 259 295 283 303 319 295 224 157
296 292 293 290 284 287 297 317 329 329 332 110 336 28 343 284 316 14 47 19 122 69 81 27 71 74 63 81 112 319 21 28 343 338 357 354 300 349 292 291 337 310 305 309 348 348 216
288 290 292 287 278 280 285 309 326 335 337 50 303 328 104 286 343 76 237 106 78 122 48 97 89 83 51 357 311 245 226 234 216 290 322 13 46 25 290 328 2 323 349 25 85 23 327
279 278 280 276 256 252 256 294 332 349 33 136 258 37 62 290 313 194 112 99 88 61 113 100 85 89 253 352 5 15 2 278 269 274 156 299 36 96 260 351 165 225 27 85 85 33 11
278 278 277 260 248 218 246 287 308 336 18 96 293 57 53 292 313 104 108 116 91 63 87 119 91 169 87 47 39 14 350 354 293 225 266 150 109 327 149 232 279 71 20 352 2 30 8
274 275 270 236 222 196 228 260 290 291 357 161 241 162 126 129 301 305 124 135 141 192 355 114 170 141 76 85 63 87 331 320 311 335 218 234 123 135 360 351 225 54 325 305 227 47 349
274 274 247 214 182 206 228 208 276 310 14 81 282 198 107 169 279 53 81 171 141 108 132 92 160 67 60 70 64 135 244 206 320 333 323 289 80 186 234 247 291 340 324 306 89 311 325
275 274 242 175 174 204 232 191 258 343 358 60 268 222 127 198 283 33 35 46 31 64 127 243 46 7 38 59 97 293 305 175 74 234 271 298 193 189 141 217 328 344 31 56 197 266 299
269 263 195 169 176 205 219 180 175 89 14 52 308 306 129 136 236 267 135 132 109 164 130 22 149 107 161 97 193 65 340 325 173 25 290 90 112 261 73 81 19 9 40 17 13 357 324